Weather History for Panama City, FL

Change the Weather History Date:

Sunday, December 2, 2012

  Actual Average Record
Temperature  
Mean Temperature 18 °C -  
Max Temperature 24 °C - 24 °C (2012)
Min Temperature 11 °C - -1 °C (2010)
Degree Days  
Heating Degree Days 1    
Cooling Degree Days 0    
Growing Degree Days 14 (Base 50)    
Moisture  
Dew Point 12 °C    
Average Humidity 72    
Maximum Humidity 93    
Minimum Humidity 50    
Precipitation  
Precipitation 0.00 mm - 0.00 mm (2014)
Sea Level Pressure  
Sea Level Pressure 1026 hPa    
Wind  
Wind Speed 5 km/h (East)    
Max Wind Speed 19 km/h    
Max Gust Speed 24 km/h    
Visibility 13 kilometers    
Events      
T = Trace of Precipitation, MM = Missing Value Source: NWS Daily Summary

Daily Weather History Graph

Daily Weather History Graph

Search for Another Location

Airport:

Trip Planner

Search our weather history database for the weather conditions in past years. The results will help you decide how hot, cold, wet, or windy it might be!

Date:

Astronomy

Dec. 02, 2012 Rise Set
Actual Time 7:23 AM EST 5:42 PM EST
Civil Twilight 6:57 AM EST 6:08 PM EST
Nautical Twilight 6:27 AM EST 6:38 PM EST
Astronomical Twilight 5:58 AM EST 7:07 PM EST
Moon 9:22 PM EST (12/2) 10:18 AM EST (12/2)
Length of Visible Light 11h 11m
Length of Day
10h 18m
Waning Gibbous, 86% of the Moon is Illuminated
Dec 2
Waning Gibbous
Dec 6
Last Quarter
Dec 13
New
Dec 20
First Quarter
Dec 28
Full

Hourly Weather History & Observations

Time (EST) Temp. Dew Point Humidity Pressure Visibility Wind Dir Wind Speed Gust Speed Precip Events Conditions
12:53 AM 13.3 °C 11.1 °C 87% 1026.1 hPa 16.1 km ENE 9.3 km/h / 2.6 m/s - N/A   Clear
1:53 AM 12.2 °C 10.6 °C 90% 1025.9 hPa 16.1 km Calm Calm - N/A   Clear
2:53 AM 11.7 °C 10.0 °C 89% 1025.6 hPa 16.1 km NNE 5.6 km/h / 1.5 m/s - N/A   Clear
3:53 AM 12.2 °C 11.1 °C 93% 1025.7 hPa 16.1 km NE 7.4 km/h / 2.1 m/s - N/A   Clear
4:53 AM 11.7 °C 10.6 °C 93% 1025.9 hPa 14.5 km NE 5.6 km/h / 1.5 m/s - N/A   Clear
5:29 AM 12.0 °C 11.0 °C 94% 1024.6 hPa 14.5 km ENE 9.3 km/h / 2.6 m/s - N/A   Partly Cloudy
5:53 AM 12.2 °C 11.1 °C 93% 1026.1 hPa 14.5 km ENE 5.6 km/h / 1.5 m/s - N/A   Clear
6:53 AM 12.2 °C 11.1 °C 93% 1026.4 hPa 11.3 km ENE 5.6 km/h / 1.5 m/s - N/A   Clear
7:53 AM 11.7 °C 10.6 °C 93% 1027.1 hPa 4.8 km Calm Calm - N/A   Clear
8:53 AM 13.9 °C 12.8 °C 93% 1027.7 hPa 4.8 km Calm Calm - N/A   Scattered Clouds
9:53 AM 16.7 °C 14.4 °C 86% 1028.2 hPa 16.1 km East 9.3 km/h / 2.6 m/s - N/A   Partly Cloudy
10:53 AM 20.6 °C 15.6 °C 73% 1028.1 hPa 16.1 km ENE 5.6 km/h / 1.5 m/s - N/A   Partly Cloudy
11:53 AM 22.8 °C 15.0 °C 61% 1027.5 hPa 16.1 km ESE 13.0 km/h / 3.6 m/s - N/A   Clear
12:53 PM 23.9 °C 13.3 °C 51% 1026.4 hPa 16.1 km SE 9.3 km/h / 2.6 m/s - N/A   Scattered Clouds
1:53 PM 24.4 °C 14.4 °C 54% 1025.6 hPa 16.1 km SSE 14.8 km/h / 4.1 m/s - N/A   Scattered Clouds
2:53 PM 23.9 °C 14.4 °C 55% 1025.1 hPa 16.1 km SSE 14.8 km/h / 4.1 m/s - N/A   Scattered Clouds
3:53 PM 24.0 °C 15.0 °C 57% 1023.2 hPa 16.1 km SSW 11.1 km/h / 3.1 m/s - N/A   Partly Cloudy
4:53 PM 22.8 °C 15.6 °C 64% 1024.7 hPa 16.1 km South 13.0 km/h / 3.6 m/s - N/A   Clear
5:53 PM 19.4 °C 16.1 °C 81% 1024.8 hPa 16.1 km Calm Calm - N/A   Clear
6:53 PM 17.2 °C 15.6 °C 90% 1025.1 hPa 16.1 km Calm Calm - N/A   Scattered Clouds
7:53 PM 15.6 °C 13.9 °C 90% 1025.1 hPa 9.7 km Calm Calm - N/A   Clear
8:53 PM 14.4 °C 12.8 °C 90% 1025.1 hPa 16.1 km Calm Calm - N/A   Clear
9:53 PM 12.8 °C 11.1 °C 89% 1025.4 hPa 16.1 km Calm Calm - N/A   Clear
10:53 PM 12.8 °C 11.7 °C 93% 1025.4 hPa 16.1 km Calm Calm - N/A   Scattered Clouds
11:11 PM 13.0 °C 11.0 °C 88% 1024.3 hPa 6.4 km Calm Calm - N/A   Mostly Cloudy
11:14 PM 12.0 °C 11.0 °C 94% 1024.3 hPa 2.8 km Calm Calm - N/A   Mostly Cloudy
11:22 PM 12.0 °C 11.0 °C 94% 1024.3 hPa 4.8 km Calm Calm - N/A   Mostly Cloudy
11:32 PM 12.0 °C 11.0 °C 94% 1024.3 hPa 14.5 km Calm Calm - N/A   Scattered Clouds
11:45 PM 12.0 °C 11.0 °C 94% 1024.3 hPa 2.8 km Calm Calm - N/A   Scattered Clouds
11:53 PM 11.7 °C 10.0 °C 89% 1025.4 hPa 4.0 km Calm Calm - N/A   Mostly Cloudy